This is the latest recevied weather packets stored in our database for station/object N0ZJT. If no packets are shown the sender has not sent any weather packets the latest 10 day(s).
| Time | Temp. | Humidity | Pressure | Rain* | Wind** | Luminosity | Snow |
|---|---|---|---|---|---|---|---|
| 1777019330 | 14.44° C | 88% | 964.8 hPa | 0 mm | - | - | - |
| 1777018490 | 14.44° C | 88% | 965.5 hPa | 0 mm | - | - | - |
| 1777017530 | 14.44° C | 88% | 965.6 hPa | 0 mm | - | - | - |
| 1777016690 | 14.44° C | 88% | 965.8 hPa | 0 mm | - | - | - |
| 1777015730 | 14.44° C | 89% | 966.1 hPa | 0 mm | - | - | - |
| 1777014890 | 15° C | 89% | 966 hPa | 0 mm | - | - | - |
| 1777013930 | 15° C | 89% | 966.4 hPa | 0 mm | - | - | - |
| 1777013090 | 15° C | 89% | 966.3 hPa | 0 mm | - | - | - |
| 1777012130 | 15° C | 87% | 965.5 hPa | 0.51 mm | - | - | - |
| 1777011290 | 15° C | 87% | 963.6 hPa | 2.03 mm | - | - | - |
| 1777010330 | 15° C | 87% | 963.6 hPa | 3.56 mm | - | - | - |
| 1777009490 | 15.56° C | 87% | 964.1 hPa | 4.32 mm | - | - | - |
| 1777008530 | 15.56° C | 86% | 965.5 hPa | 3.56 mm | - | - | - |
| 1777007690 | 15.56° C | 85% | 965.9 hPa | 2.29 mm | - | - | - |
| 1777006730 | 16.11° C | 84% | 966.4 hPa | 1.78 mm | - | - | - |
| 1777005890 | 16.11° C | 84% | 965.6 hPa | 1.02 mm | - | - | - |
| 1777004930 | 16.11° C | 84% | 965.1 hPa | 1.02 mm | - | - | - |
| 1777004090 | 16.11° C | 84% | 964.9 hPa | 1.52 mm | - | - | - |
| 1777003130 | 16.11° C | 84% | 964.6 hPa | 1.27 mm | - | - | - |
| 1777002290 | 16.11° C | 83% | 964.6 hPa | 3.05 mm | - | - | - |
| 1777001330 | 16.67° C | 81% | 964.3 hPa | 3.3 mm | - | - | - |
| 1777000490 | 16.67° C | 81% | 964.3 hPa | 2.54 mm | - | - | - |
| 1776999530 | 16.67° C | 80% | 964.2 hPa | 2.29 mm | - | - | - |
| 1776998690 | 17.78° C | 76% | 963.9 hPa | 0.25 mm | - | - | - |
| 1776997730 | 20° C | 81% | 962.9 hPa | 0 mm | - | - | - |
* Rain latest hour (hover to see other rain measurements)
** Current wind speed in m/s (hover to see current wind gust speed)